Simultaneous Nadir Overpasses (SNOs) Predictions

Prediction of SNOs between FY3D and METOP-C Satellite Orbit:

Table of predicted SNOs for the next 14.0 days since TLE Epoch: 4/13/2024
Index Date (FY3D) Time (FY3D) Lat,Lon (FY3D) SZA (FY3D ) Date (METOP-C) Time (METOP-C) Lat,Lon (METOP-C) SZA (METOP-C ) Distance(km) Time Diff (sec)
1 04/17/2024 15:01:09 76.16, -47.82 65.30 04/17/2024 15:02:16 76.13, -45.01 65.25 74.80 67
2 04/17/2024 15:51:51 -76.06, 119.86 114.82 04/17/2024 15:53:00 -76.01, 121.92 114.88 55.53 69
3 04/17/2024 16:42:32 75.80, -71.94 64.90 04/17/2024 16:43:45 75.79, -71.49 64.89 12.40 73
4 04/17/2024 17:33:15 -75.74, 95.56 115.17 04/17/2024 17:34:28 -75.72, 95.61 115.20 3.39 73
5 04/17/2024 18:24:01 75.71, -97.03 64.79 04/17/2024 18:25:08 75.73, -97.03 64.80 1.54 67
6 04/17/2024 19:14:45 -75.70, 70.32 115.23 04/17/2024 19:15:50 -75.70, 70.22 115.24 2.61 65
7 04/17/2024 20:05:32 75.72,-122.42 64.77 04/17/2024 20:06:30 75.71,-122.42 64.76 0.71 58
8 04/17/2024 20:56:16 -75.71, 44.92 115.25 04/17/2024 20:57:11 -75.73, 44.98 115.23 3.21 55
9 04/17/2024 21:47:03 75.72,-147.82 64.75 04/17/2024 21:47:52 75.70,-147.81 64.72 2.95 49
10 04/17/2024 22:37:47 -75.71, 19.53 115.27 04/17/2024 22:38:33 -75.72, 19.59 115.27 1.90 46
11 04/17/2024 23:28:33 75.68,-173.06 64.69 04/17/2024 23:29:14 75.68,-173.19 64.69 3.72 41
12 04/18/2024 00:19:18 -75.72, -5.87 115.29 04/18/2024 00:19:55 -75.70, -5.79 115.31 2.63 37
13 04/18/2024 01:10:04 75.69, 161.55 64.67 04/18/2024 01:10:35 75.71, 161.57 64.69 2.95 31
14 04/18/2024 02:00:48 -75.68, -31.11 115.36 04/18/2024 02:01:17 -75.69, -31.18 115.35 2.33 29
15 04/18/2024 02:51:35 75.69, 136.15 64.65 04/18/2024 02:51:57 75.70, 136.18 64.65 1.00 22
16 04/18/2024 03:42:19 -75.68, -56.50 115.38 04/18/2024 03:42:39 -75.67, -56.57 115.39 2.15 20
17 04/18/2024 04:33:06 75.70, 110.76 64.63 04/18/2024 04:33:19 75.68, 110.79 64.61 1.85 13
18 04/18/2024 05:23:50 -75.69, -81.90 115.40 04/18/2024 05:24:00 -75.71, -81.81 115.38 3.04 10
19 04/18/2024 06:14:36 75.66, 85.52 64.56 04/18/2024 06:14:41 75.67, 85.40 64.57 3.34 5
20 04/18/2024 07:05:21 -75.69,-107.29 115.42 04/18/2024 07:05:22 -75.69,-107.20 115.42 2.60 1
21 04/18/2024 07:56:07 75.66, 60.12 64.54 04/18/2024 07:56:03 75.65, 60.02 64.53 3.07 4
22 04/18/2024 08:46:51 -75.65,-132.53 115.48 04/18/2024 08:46:44 -75.68,-132.59 115.46 2.87 7
23 04/18/2024 09:37:38 75.67, 34.73 64.52 04/18/2024 09:37:24 75.68, 34.78 64.54 2.41 14
24 04/18/2024 10:28:22 -75.66,-157.93 115.50 04/18/2024 10:28:06 -75.66,-157.97 115.50 1.29 16
25 04/18/2024 11:19:09 75.67, 9.33 64.50 04/18/2024 11:18:46 75.67, 9.39 64.50 1.58 23
26 04/18/2024 12:09:53 -75.66, 176.68 115.52 04/18/2024 12:09:28 -75.65, 176.64 115.54 2.28 25
27 04/18/2024 13:00:40 75.68, -16.06 64.49 04/18/2024 13:00:08 75.65, -16.00 64.46 3.08 32
28 04/18/2024 13:51:24 -75.67, 151.28 115.54 04/18/2024 13:50:49 -75.68, 151.40 115.53 3.30 35
29 04/18/2024 14:42:10 75.64, -41.30 64.42 04/18/2024 14:41:30 75.64, -41.39 64.42 2.30 40
30 04/18/2024 15:32:55 -75.67, 125.89 115.56 04/18/2024 15:32:11 -75.66, 126.01 115.57 3.57 44
31 04/18/2024 16:23:41 75.64, -66.70 64.40 04/18/2024 16:22:52 75.62, -66.77 64.38 2.85 49
32 04/18/2024 17:14:25 -75.63, 100.65 115.63 04/18/2024 17:13:33 -75.65, 100.62 115.61 1.69 52
33 04/18/2024 18:05:12 75.65, -92.09 64.38 04/18/2024 18:04:13 75.66, -92.01 64.39 2.41 59
34 04/18/2024 18:55:56 -75.64, 75.25 115.65 04/18/2024 18:54:55 -75.63, 75.24 115.65 0.86 61
35 04/18/2024 19:46:43 75.65,-117.49 64.36 04/18/2024 19:45:35 75.64,-117.40 64.35 2.69 68
36 04/18/2024 20:37:26 -75.64, 49.86 115.66 04/18/2024 20:36:16 -75.62, 49.85 115.69 2.97 70
37 04/18/2024 21:28:11 75.57,-142.58 64.25 04/18/2024 21:26:57 75.58,-142.94 64.27 10.03 74
38 04/18/2024 22:18:53 -75.46, 25.06 115.87 04/18/2024 22:17:41 -75.46, 24.02 115.87 29.09 72
39 04/18/2024 23:09:34 75.20,-166.80 63.86 04/18/2024 23:08:27 75.19,-169.48 63.86 76.06 67
40 04/19/2024 00:00:16 -75.10, 0.82 116.26 04/18/2024 23:59:10 -75.11, -2.36 116.23 90.91 66



Historial Predications of SNOs between FY3D and METOP-C
